Weather History for Proserpine, QU

Change the Weather History Date:

Friday, March 21, 2014

  Actual Average Record
Temperature  
Mean Temperature 74 °F -  
Max Temperature 77 °F - - ()
Min Temperature 71 °F - - ()
Cooling Degree Days 9    
Growing Degree Days 24 (Base 50)    
Moisture  
Dew Point 72 °F    
Average Humidity 94    
Maximum Humidity 100    
Minimum Humidity 83    
Precipitation  
Precipitation 1.10 in - - ()
Sea Level Pressure  
Sea Level Pressure 29.91 in    
Wind  
Wind Speed 10 mph ()    
Max Wind Speed 16 mph    
Max Gust Speed -    
Visibility 5.4 miles    
Events Rain    
T = Trace of Precipitation, MM = Missing Value Source: Averaged Metar Reports

Daily Weather History Graph

Daily Weather History Graph

Search for Another Location

Airport:

Trip Planner

Search our weather history database for the weather conditions in past years. The results will help you decide how hot, cold, wet, or windy it might be!

Date:

Astronomy

Mar. 21, 2014 Rise Set
Actual Time 6:09 AM EST 6:16 PM EST
Civil Twilight 5:47 AM EST 6:38 PM EST
Nautical Twilight 5:21 AM EST 7:03 PM EST
Astronomical Twilight 4:56 AM EST 7:29 PM EST
Moon 9:28 PM EST (3/21) 9:53 AM EST (3/21)
Length of Visible Light 12h 50m
Length of Day
12h 06m
Waning Gibbous, 81% of the Moon is Illuminated
Mar 21
Waning Gibbous
Mar 24
Last Quarter
Mar 31
New
Apr 7
First Quarter
Apr 15
Full

Hourly Weather History & Observations

Time (EST) Temp. Dew Point Humidity Pressure Visibility Wind Dir Wind Speed Gust Speed Precip Events Conditions
12:00 AM 72 °F 71 °F 94% 29.92 in - SSE 12.7 mph - -   Overcast
12:00 AM 71.6 °F 71.6 °F 100% 29.92 in 6.2 mi SSE 11.5 mph - N/A   Overcast
1:00 AM 73.4 °F 71.6 °F 94% 29.92 in 6.2 mi SE 16.1 mph - N/A   Overcast
2:00 AM 73.4 °F 71.6 °F 94% 29.89 in 6.2 mi SSE 13.8 mph - N/A   Overcast
3:00 AM 72 °F 70 °F 91% 29.88 in - South 11.5 mph - -   Overcast
3:00 AM 71.6 °F 69.8 °F 94% 29.86 in 6.2 mi South 11.5 mph - N/A   Overcast
4:00 AM 71.6 °F 69.8 °F 94% 29.86 in 6.2 mi SSE 12.7 mph - N/A   Overcast
5:04 AM 71.6 °F 69.8 °F 94% 29.89 in 6.2 mi SSE 10.4 mph - N/A   Overcast
6:00 AM 73 °F 71 °F 89% 29.91 in - SE 13.8 mph - -   Overcast
6:00 AM 73.4 °F 69.8 °F 88% 29.89 in 6.2 mi SE 13.8 mph - N/A   Overcast
7:00 AM 73.4 °F 71.6 °F 94% 29.92 in 6.2 mi SSE 11.5 mph - N/A   Overcast
8:00 AM 73.4 °F 69.8 °F 88% 29.92 in 6.2 mi South 9.2 mph - N/A   Overcast
9:00 AM 74 °F 71 °F 87% 29.95 in 6 mi SSE 10.4 mph - - Rain Light Rain
9:00 AM 73.4 °F 69.8 °F 88% 29.95 in 6.2 mi SSE 10.4 mph - N/A   Overcast
10:00 AM 77.0 °F 73.4 °F 89% 29.92 in 6.2 mi South 10.4 mph - N/A   Mostly Cloudy
11:00 AM 75.2 °F 71.6 °F 89% 29.92 in 3.1 mi SE 13.8 mph - N/A   Overcast
12:00 PM 75 °F 74 °F 94% 29.93 in 3 mi ESE 10.4 mph - -   Overcast
12:00 PM 75.2 °F 73.4 °F 94% 29.92 in - ESE 10.4 mph - N/A   Overcast
1:00 PM 77.0 °F 71.6 °F 83% 29.89 in 6.2 mi ESE 13.8 mph - N/A   Mostly Cloudy
2:00 PM 73.4 °F 73.4 °F 100% 29.89 in - East 10.4 mph - N/A   Overcast
3:00 PM 74 °F 73 °F 96% 29.88 in 1 mi South 6.9 mph - - Rain Light Rain
3:00 PM 73.4 °F 73.4 °F 100% 29.86 in 5.0 mi South 6.9 mph - N/A   Overcast
4:00 PM 75.2 °F 73.4 °F 94% 29.86 in 6.2 mi ESE 9.2 mph - N/A   Overcast
5:00 PM 75.2 °F 73.4 °F 94% 29.86 in 6.2 mi SSE 9.2 mph - N/A   Overcast
6:00 PM 73 °F 72 °F 95% 29.89 in 4 mi SSE 9.2 mph - -   Overcast
6:00 PM 73.4 °F 71.6 °F 94% 29.89 in 4.3 mi SSE 9.2 mph - N/A   Overcast
7:00 PM 73.4 °F 71.6 °F 94% 29.89 in 6.2 mi SSE 10.4 mph - N/A   Overcast
8:00 PM 71.6 °F 71.6 °F 100% 29.92 in 3.7 mi East 11.5 mph - N/A   Overcast
9:00 PM 73 °F 73 °F 99% 29.95 in - SSE 6.9 mph - -   Overcast
9:00 PM 73.4 °F 73.4 °F 100% 29.95 in 6.2 mi SSE 6.9 mph - N/A   Overcast
10:00 PM 71.6 °F 71.6 °F 100% 29.95 in 6.2 mi South 6.9 mph - N/A   Mostly Cloudy
11:00 PM 73.4 °F 71.6 °F 94% 29.92 in 6.2 mi South 8.1 mph - N/A   Unknown